[TLELIST] Archives

 

[list_settings.list_name] Current TLEs

July 5th 2008 PDT

HST 1 20580U 90037B 08186.23945510 .00000285 00000-0 92029-5 0 1709 2 20580 028.4691 212.0038 0003784 201.5463 158.4964 15.00390886797545 ISS (ZARYA) 1 25544U 98067A 08186.87400661 .00006499 00000-0 47055-4 0 7941 2 25544 051.6413 285.4198 0008946 333.6627 129.6621 15.74930425551318 CXO 1 25867U 99040B 08186.04166667 +.00000115 +00000-0 +10000-3 0 02184 2 25867 063.8553 080.0007 6864360 278.7286 352.6724 00.37799603003699 ____________________________________________________________________ These 2-Line ...Continue Reading

[list_settings.list_name] Current TLEs

July 4th 2008 PDT

HST 1 20580U 90037B 08186.23945510 .00000285 00000-0 92029-5 0 1709 2 20580 028.4691 212.0038 0003784 201.5463 158.4964 15.00390886797545 ISS (ZARYA) 1 25544U 98067A 08185.54252005 .00009588 00000-0 67390-4 0 7857 2 25544 051.6399 292.2653 0008498 328.8724 140.2343 15.74921874551104 CXO 1 25867U 99040B 08186.04166667 +.00000115 +00000-0 +10000-3 0 02184 2 25867 063.8553 080.0007 6864360 278.7286 352.6724 00.37799603003699 ____________________________________________________________________ These 2-Line ...Continue Reading

[list_settings.list_name] Current TLEs

July 3rd 2008 PDT

HST 1 20580U 90037B 08184.50997587 .00000285 00000-0 91690-5 0 1699 2 20580 028.4693 223.2820 0003796 183.6672 176.3889 15.00390484797285 ISS (ZARYA) 1 25544U 98067A 08184.84158799 .00010483 00000-0 73297-4 0 7808 2 25544 051.6415 295.8710 0008737 325.0011 127.3655 15.74911835550994 CXO 1 25867U 99040B 08183.41666667 +.00000157 +00000-0 +10000-3 0 02172 2 25867 063.8482 080.0588 6858166 278.8098 355.2197 00.37796031003687 ____________________________________________________________________ These 2-Line ...Continue Reading

[list_settings.list_name] Current TLEs

July 2nd 2008 PDT

HST 1 20580U 90037B 08182.58094180 +.00000269 +00000-0 +78986-5 0 01811 2 20580 028.4696 235.8704 0003866 165.6244 194.4457 15.00390006796990 ISS (ZARYA) 1 25544U 98067A 08184.12756944 .00011067 00000-0 77175-4 0 7768 2 25544 051.6413 299.5415 0008747 322.0920 039.3120 15.74898395550884 CXO 1 25867U 99040B 08183.41666667 +.00000157 +00000-0 +10000-3 0 02172 2 25867 063.8482 080.0588 6858166 278.8098 355.2197 00.37796031003687 ____________________________________________________________________ These 2-Line ...Continue Reading

[list_settings.list_name] Current TLEs

July 1st 2008 PDT

HST 1 20580U 90037B 08183.24612533 .00000279 00000-0 86814-5 0 1688 2 20580 028.4697 231.5255 0003849 171.8057 188.2594 15.00390170797094 ISS (ZARYA) 1 25544U 98067A 08183.11092593 .00011608 00000-0 80816-4 0 7700 2 25544 051.6412 304.7692 0008642 317.5779 035.9890 15.74876736550717 CXO 1 25867U 99040B 08180.79166667 +.00000296 +00000-0 +10000-3 0 02168 2 25867 063.8288 080.1568 6857604 278.8433 357.8237 00.37807083003671 ____________________________________________________________________ These 2-Line ...Continue Reading

[list_settings.list_name] Current TLEs

June 30th 2008 PDT

HST 1 20580U 90037B 08181.58316458 .00000284 00000-0 91310-5 0 1672 2 20580 028.4697 242.3775 0003866 155.3684 204.7089 15.00389923796842 ISS (ZARYA) 1 25544U 98067A 08181.85788352 .00012775 00000-0 88602-4 0 7622 2 25544 051.6412 311.2121 0008538 312.2467 132.4100 15.74850066550521 CXO 1 25867U 99040B 08180.79166667 +.00000296 +00000-0 +10000-3 0 02168 2 25867 063.8288 080.1568 6857604 278.8433 357.8237 00.37807083003671 ____________________________________________________________________ These 2-Line ...Continue Reading

[list_settings.list_name] Current TLEs

June 29th 2008 PDT

HST 1 20580U 90037B 08180.51886884 .00000285 00000-0 91592-5 0 1661 2 20580 028.4698 249.3185 0003839 144.7311 215.3533 15.00389679796686 ISS (ZARYA) 1 25544U 98067A 08180.85180269 .00012887 00000-0 89437-4 0 7568 2 25544 051.6417 316.3841 0008472 308.5639 188.3622 15.74824083550368 CXO 1 25867U 99040B 08180.79166667 +.00000296 +00000-0 +10000-3 0 02168 2 25867 063.8288 080.1568 6857604 278.8433 357.8237 00.37807083003671 ____________________________________________________________________ These 2-Line ...Continue Reading

[list_settings.list_name] Current TLEs

June 28th 2008 PDT

HST 1 20580U 90037B 08179.25501669 .00000293 00000-0 98174-5 0 1656 2 20580 028.4699 257.5591 0003845 132.2853 227.8064 15.00389483796498 ISS (ZARYA) 1 25544U 98067A 08179.37559632 .00010039 00000-0 70804-4 0 7461 2 25544 051.6420 323.9720 0008200 300.1418 102.0678 15.74774152550134 CXO 1 25867U 99040B 08178.12500000 +.00000401 +00000-0 +10000-3 0 02141 2 25867 063.8093 080.2628 6854952 278.8297 354.8727 00.37808838003663 ____________________________________________________________________ These 2-Line ...Continue Reading

[list_settings.list_name] Current TLEs

June 27th 2008 PDT

HST 1 20580U 90037B 08179.25501669 .00000293 00000-0 98174-5 0 1656 2 20580 028.4699 257.5591 0003845 132.2853 227.8064 15.00389483796498 ISS (ZARYA) 1 25544U 98067A 08179.37559632 .00010039 00000-0 70804-4 0 7461 2 25544 051.6420 323.9720 0008200 300.1418 102.0678 15.74774152550134 CXO 1 25867U 99040B 08178.12500000 +.00000401 +00000-0 +10000-3 0 02141 2 25867 063.8093 080.2628 6854952 278.8297 354.8727 00.37808838003663 ____________________________________________________________________ These 2-Line ...Continue Reading

[list_settings.list_name] Current TLEs

June 26th 2008 PDT

HST 1 20580U 90037B 08177.65857160 .00000292 00000-0 97419-5 0 1647 2 20580 028.4700 267.9702 0003793 116.1250 243.9730 15.00389079796258 ISS (ZARYA) 1 25544U 98067A 08178.16163194 .00008829 00000-0 62877-4 0 7400 2 25544 051.6420 330.2135 0008276 295.5451 059.8713 15.74743243549934 CXO 1 25867U 99040B 08178.12500000 +.00000401 +00000-0 +10000-3 0 02141 2 25867 063.8093 080.2628 6854952 278.8297 354.8727 00.37808838003663 ____________________________________________________________________ These 2-Line ...Continue Reading
  • This mailing list is a public mailing list - anyone may join or leave, at any time.
  • This mailing list is announce-only.

International Space Station (ISS) / Hubble Space Telescope (HST) / Chandra X-Ray Observatory Orbital Data via EMAIL

Privacy Policy:

Private list